Miscellaneous Local Product
Issued by NWS Hastings, NE

Home | Current Version | Previous Version | Graphics & Text | Print | Product List | Glossary On
Versions: 1 2 3 4 5 6 7 8 9 10 11 12 13 14 15 16 17 18 19 20 21 22 23 24 25 26 27 28 29 30 31 32 33 34 35 36 37 38 39 40 41 42 43 44 45 46 47 48 49 50
000
AXUS43 KGID 210902
MISGRI

GID CWA HOURLY WEATHER ROUNDUP
NATIONAL WEATHER SERVICE HASTINGS NE
400 AM CDT THU MAY 21 2015

NOTE: "FAIR" INDICATES FEW OR NO CLOUDS BELOW 12,000 FEET WITH NO
SIGNIFICANT WEATHER AND/OR OBSTRUCTIONS TO VISIBILITY.

...SOUTH CENTRAL NEBRASKA...

CITY           SKY/WX    TMP DP  RH WIND       PRES   REMARKS
GRAND ISLAND   CLEAR     37  35  92 W7        30.29S WCI  32
HASTINGS       CLEAR     40  37  89 W6        30.29S
KEARNEY        CLEAR     39  36  87 W5        30.30S
ORD            CLEAR     32  31  96 N5        30.27S WCI  27
YORK           CLEAR     37  37 100 W7        30.28S WCI  32
AURORA         CLEAR     36  36 100 W7        30.28S WCI  30
LEXINGTON      CLEAR     36  34  95 NW5       30.31S FOG     WCI  32
HOLDREGE       CLEAR     38  36  92 W6        30.30S WCI  34
HEBRON         CLEAR     41  39  93 W3        30.29S

...NEBRASKA PANHANDLE...

CITY           SKY/WX    TMP DP  RH WIND       PRES   REMARKS
CHADRON        CLEAR     30  28  92 W6        30.29F WCI  24
ALLIANCE       PTCLDY    29  27  92 S3        30.28F
SCOTTSBLUFF    CLOUDY    41  36  82 SE8       30.28F
SIDNEY         CLOUDY    41  37  86 SE8       30.29F

...WESTERN AND NORTH CENTRAL NEBRASKA...

CITY           SKY/WX    TMP DP  RH WIND       PRES   REMARKS
VALENTINE      CLEAR     35  33  92 W10       30.28S WCI  27
AINSWORTH      CLEAR     38  36  89 W9        30.27S WCI  32
ONEILL         CLEAR     40  37  90 W9        30.26S WCI  34
BROKEN BOW     CLEAR     38  34  85 N3        30.29S
IMPERIAL       CLOUDY    44  39  82 SE5       30.31S
NORTH PLATTE   CLEAR     33  32  96 NW3       30.31S
MCCOOK         CLEAR     39  38  96 W5        30.32S

...EASTERN NEBRASKA...

CITY           SKY/WX    TMP DP  RH WIND       PRES   REMARKS
NORFOLK        CLEAR     41  37  86 W8        30.24F
SO SIOUX CITY  CLEAR     40  35  83 NW5       30.21F
TEKAMAH        CLEAR     42  38  85 SW5       30.23F
COLUMBUS       CLEAR     39  30  70 W6        30.28F WCI  35
ALBION         CLEAR     38  34  85 CALM      30.27S
OMAHA EPPLEY   CLEAR     40  38  93 E3        30.26S
MILLARD        FOG       38  37  96 CALM      30.26S VSB 3/4
LINCOLN        CLEAR     38  37  97 CALM      30.28S
NEBRASKA CITY  CLEAR     40  40  99 NW6       30.26S
BEATRICE       CLEAR     38  38  98 CALM      30.27F FOG
FALLS CITY     CLEAR     43  41  93 NW7       30.26S

...NORTHERN KANSAS...

CITY           SKY/WX    TMP DP  RH WIND       PRES   REMARKS
GOODLAND       MOCLDY    40  38  93 SE6       30.30F
HILL CITY      CLEAR     41  40  96 CALM      30.33S
NORTON         SUNNY     37  36  93 W5        30.31S WCI  34
PHILLIPSBURG   CLEAR     39  39 100 W5        30.33S
SMITH CENTER   CLEAR     36  36 100 NW5       30.32S WCI  32
HAYS           CLEAR     39  30  70 NW5       30.32S
RUSSELL        CLEAR     38  38 100 NW6       30.30S WCI  33
CONCORDIA      CLEAR     41  39  93 W6        30.29S
SALINA         CLEAR     42  40  92 N3        30.30S
TOPEKA         CLOUDY    47  44  90 NW5       30.27S



USA.gov is the U.S. government's official web portal to all federal, state and local government web resources and services.